QPF
0.00 0.01 0.01 0.01 0.02 0.02 0.01 0.01 0.01 0.01 0.02 0.03 0.04 0.04 0.03 0.01 0.01 0.02 0.03 0.04 0.06 0.07 0.06 0.06 0.08 0.06 0.08 0.07 0.06 0.09 0.11 0.09 0.08 0.06 0.06 0.07 0.07 0.07 0.06 0.06 0.04 0.04 0.03 0.04 0.07 0.10 0.09 0.10 0.11
0.01 0.01 0.01 0.01 0.02 0.01 0.01 0.01 0.01 0.01 0.01 0.03 0.03 0.03 0.02 0.02 0.02 0.03 0.05 0.05 0.05 0.04 0.03 0.03 0.06 0.06 0.10 0.07 0.05 0.07 0.10 0.11 0.09 0.07 0.07 0.08 0.10 0.11 0.09 0.06 0.05 0.05 0.05 0.04 0.08 0.12 0.11 0.11 0.08
0.01 0.01 0.02 0.02 0.01 0.01 0.02 0.02 0.01 0.01 0.01 0.00 0.00 0.01 0.03 0.03 0.04 0.05 0.06 0.05 0.05 0.03 0.03 0.04 0.07 0.07 0.07 0.06 0.05 0.06 0.08 0.10 0.10 0.10 0.09 0.09 0.11 0.10 0.08 0.06 0.06 0.05 0.05 0.06 0.10 0.16 0.17 0.13 0.10
0.02 0.01 0.01 0.01 0.00 0.00 0.01 0.01 0.01 0.00 0.00 0.00 0.00 0.01 0.03 0.05 0.06 0.06 0.03 0.02 0.03 0.03 0.04 0.05 0.07 0.06 0.04 0.05 0.06 0.06 0.06 0.06 0.09 0.12 0.13 0.12 0.10 0.09 0.09 0.09 0.07 0.06 0.04 0.06 0.10 0.12 0.11 0.10 0.09
0.01 0.02 0.01 0.00 0.00 0.00 0.00 0.00 0.00 0.00 0.00 0.00 0.00 0.01 0.02 0.03 0.03 0.02 0.02 0.01 0.01 0.02 0.02 0.05 0.07 0.05 0.05 0.06 0.06 0.06 0.05 0.05 0.08 0.09 0.11 0.13 0.14 0.11 0.11 0.12 0.07 0.06 0.06 0.06 0.06 0.06 0.07 0.06 0.06
0.02 0.01 0.00 0.00 0.00 0.00 0.00 0.00 0.00 0.00 0.00 0.00 0.00 0.01 0.02 0.03 0.02 0.01 0.01 0.01 0.01 0.02 0.02 0.07 0.09 0.07 0.06 0.06 0.05 0.06 0.06 0.05 0.07 0.07 0.07 0.09 0.09 0.06 0.06 0.07 0.05 0.05 0.05 0.06 0.05 0.04 0.05 0.04 0.04
0.01 0.00 0.00 0.00 0.00 0.00 0.00 0.00 0.00 0.00 0.00 0.00 0.00 0.01 0.02 0.02 0.02 0.02 0.01 0.01 0.01 0.02 0.04 0.08 0.10 0.07 0.06 0.06 0.05 0.06 0.06 0.04 0.06 0.07 0.05 0.06 0.07 0.06 0.05 0.07 0.07 0.06 0.04 0.04 0.03 0.03 0.03 0.04 0.03
0.01 0.00 0.00 0.00 0.00 0.00 0.00 0.00 0.00 0.00 0.00 0.00 0.00 0.00 0.01 0.01 0.01 0.01 0.01 0.01 0.03 0.04 0.05 0.04 0.06 0.07 0.06 0.08 0.10 0.09 0.06 0.04 0.05 0.06 0.05 0.05 0.07 0.07 0.07 0.07 0.06 0.06 0.06 0.05 0.04 0.03 0.03 0.04 0.04
0.00 0.00 0.00 0.00 0.00 0.00 0.00 0.00 0.00 0.00 0.00 0.00 0.00 0.00 0.00 0.00 0.00 0.00 0.00 0.01 0.02 0.03 0.02 0.02 0.04 0.07 0.07 0.08 0.10 0.09 0.07 0.04 0.04 0.05 0.07 0.06 0.04 0.06 0.06 0.08 0.07 0.05 0.05 0.05 0.05 0.05 0.05 0.06 0.05
0.00 0.00 0.00 0.00 0.00 0.00 0.00 0.00 0.00 0.00 0.00 0.00 0.00 0.00 0.00 0.00 0.00 0.00 0.00 0.00 0.00 0.01 0.01 0.01 0.04 0.06 0.05 0.04 0.04 0.03 0.03 0.02 0.01 0.02 0.03 0.05 0.06 0.05 0.07 0.08 0.07 0.06 0.05 0.04 0.03 0.03 0.04 0.05 0.05
0.00 0.00 0.00 0.00 0.00 0.00 0.00 0.00 0.00 0.00 0.00 0.00 0.00 0.00 0.00 0.00 0.00 0.00 0.00 0.00 0.01 0.01 0.01 0.03 0.04 0.04 0.04 0.02 0.02 0.01 0.01 0.01 0.01 0.01 0.02 0.05 0.07 0.08 0.06 0.05 0.06 0.05 0.05 0.04 0.04 0.03 0.02 0.03 0.03
0.00 0.00 0.00 0.00 0.00 0.00 0.00 0.00 0.00 0.00 0.00 0.00 0.00 0.00 0.00 0.00 0.00 0.00 0.00 0.00 0.00 0.00 0.01 0.01 0.01 0.01 0.02 0.01 0.01 0.01 0.01 0.02 0.01 0.01 0.01 0.02 0.03 0.05 0.04 0.03 0.04 0.04 0.04 0.04 0.02 0.02 0.03 0.03 0.02
0.00 0.00 0.00 0.00 0.00 0.00 0.00 0.00 0.00 0.00 0.00 0.00 0.00 0.00 0.00 0.00 0.00 0.00 0.00 0.00 0.00 0.01 0.01 0.01 0.01 0.01 0.01 0.01 0.01 0.01 0.02 0.01 0.02 0.01 0.01 0.01 0.01 0.02 0.03 0.03 0.03 0.03 0.03 0.03 0.02 0.02 0.03 0.03 0.03
0.00 0.00 0.00 0.00 0.00 0.00 0.00 0.00 0.00 0.00 0.00 0.00 0.00 0.00 0.00 0.00 0.00 0.00 0.00 0.00 0.00 0.01 0.01 0.01 0.01 0.01 0.01 0.01 0.02 0.01 0.01 0.01 0.01 0.01 0.01 0.02 0.02 0.02 0.03 0.05 0.04 0.03 0.02 0.02 0.02 0.02 0.04 0.04 0.04
0.00 0.01 0.00 0.00 0.01 0.01 0.01 0.01 0.00 0.00 0.00 0.00 0.00 0.00 0.00 0.00 0.01 0.01 0.01 0.00 0.00 0.01 0.01 0.01 0.01 0.01 0.01 0.01 0.01 0.02 0.02 0.01 0.01 0.02 0.02 0.02 0.03 0.04 0.04 0.06 0.06 0.03 0.02 0.02 0.02 0.03 0.04 0.05 0.06
0.01 0.01 0.01 0.00 0.01 0.01 0.01 0.02 0.01 0.01 0.00 0.00 0.00 0.00 0.01 0.01 0.01 0.01 0.01 0.02 0.01 0.01 0.01 0.01 0.02 0.01 0.01 0.02 0.02 0.02 0.03 0.02 0.01 0.01 0.02 0.02 0.03 0.04 0.04 0.06 0.05 0.02 0.02 0.03 0.04 0.05 0.04 0.05 0.05
0.00 0.00 0.00 0.00 0.00 0.01 0.01 0.02 0.01 0.01 0.00 0.00 0.00 0.00 0.01 0.01 0.01 0.01 0.01 0.02 0.02 0.01 0.01 0.02 0.02 0.01 0.02 0.02 0.02 0.02 0.04 0.03 0.02 0.02 0.02 0.02 0.02 0.04 0.04 0.05 0.04 0.03 0.03 0.05 0.06 0.05 0.03 0.04 0.05
0.01 0.00 0.00 0.00 0.00 0.01 0.01 0.01 0.01 0.01 0.00 0.00 0.00 0.00 0.00 0.01 0.01 0.01 0.01 0.02 0.02 0.02 0.01 0.02 0.02 0.01 0.01 0.01 0.01 0.01 0.02 0.02 0.02 0.02 0.01 0.01 0.02 0.04 0.05 0.05 0.04 0.04 0.04 0.05 0.06 0.05 0.04 0.04 0.06
0.00 0.00 0.00 0.00 0.00 0.00 0.00 0.00 0.00 0.01 0.01 0.00 0.00 0.00 0.00 0.00 0.01 0.01 0.01 0.01 0.01 0.01 0.01 0.01 0.01 0.00 0.00 0.00 0.00 0.00 0.01 0.01 0.02 0.02 0.03 0.02 0.02 0.03 0.03 0.04 0.05 0.04 0.04 0.05 0.07 0.06 0.06 0.05 0.05
0.00 0.00 0.00 0.00 0.00 0.01 0.00 0.00 0.00 0.00 0.01 0.01 0.00 0.00 0.00 0.00 0.00 0.00 0.00 0.00 0.00 0.00 0.00 0.01 0.00 0.00 0.00 0.00 0.00 0.00 0.01 0.01 0.02 0.02 0.03 0.02 0.03 0.03 0.03 0.04 0.06 0.05 0.04 0.05 0.06 0.06 0.06 0.06 0.05
0.00 0.00 0.00 0.00 0.01 0.01 0.00 0.00 0.00 0.00 0.00 0.00 0.00 0.00 0.00 0.00 0.00 0.01 0.00 0.00 0.00 0.00 0.00 0.00 0.00 0.00 0.00 0.00 0.00 0.00 0.00 0.01 0.01 0.01 0.01 0.02 0.04 0.04 0.04 0.05 0.07 0.06 0.04 0.04 0.05 0.05 0.05 0.05 0.07
0.00 0.00 0.00 0.00 0.00 0.00 0.00 0.00 0.00 0.00 0.00 0.00 0.00 0.00 0.00 0.00 0.01 0.00 0.00 0.00 0.00 0.00 0.00 0.00 0.00 0.00 0.00 0.00 0.00 0.00 0.00 0.00 0.01 0.01 0.01 0.03 0.03 0.05 0.05 0.05 0.06 0.06 0.05 0.04 0.05 0.04 0.03 0.04 0.05
0.00 0.00 0.00 0.00 0.00 0.00 0.00 0.00 0.00 0.00 0.00 0.00 0.00 0.00 0.00 0.00 0.00 0.00 0.00 0.00 0.00 0.01 0.00 0.00 0.00 0.00 0.00 0.00 0.00 0.00 0.00 0.00 0.01 0.01 0.02 0.02 0.03 0.05 0.04 0.03 0.03 0.03 0.03 0.03 0.04 0.04 0.03 0.04 0.05
0.00 0.00 0.01 0.01 0.01 0.00 0.00 0.00 0.00 0.00 0.00 0.00 0.00 0.00 0.00 0.00 0.00 0.00 0.01 0.01 0.01 0.01 0.00 0.01 0.01 0.01 0.00 0.00 0.00 0.01 0.01 0.01 0.01 0.01 0.01 0.01 0.02 0.04 0.04 0.03 0.03 0.02 0.02 0.02 0.04 0.05 0.04 0.04 0.04
0.00 0.00 0.01 0.01 0.00 0.00 0.00 0.00 0.00 0.00 0.00 0.00 0.00 0.00 0.00 0.00 0.00 0.01 0.01 0.01 0.01 0.01 0.01 0.01 0.02 0.02 0.01 0.01 0.01 0.02 0.02 0.02 0.01 0.01 0.01 0.01 0.02 0.02 0.03 0.04 0.04 0.03 0.02 0.03 0.03 0.04 0.04 0.04 0.03
0.00 0.00 0.00 0.00 0.00 0.00 0.00 0.00 0.00 0.00 0.00 0.00 0.01 0.01 0.01 0.01 0.01 0.01 0.01 0.02 0.01 0.01 0.02 0.02 0.04 0.03 0.02 0.02 0.02 0.03 0.03 0.02 0.01 0.02 0.02 0.02 0.02 0.03 0.03 0.03 0.03 0.02 0.03 0.04 0.04 0.04 0.04 0.04 0.03
0.00 0.00 0.00 0.01 0.00 0.00 0.00 0.00 0.00 0.00 0.00 0.00 0.01 0.01 0.01 0.01 0.01 0.02 0.02 0.03 0.03 0.03 0.03 0.04 0.05 0.05 0.05 0.04 0.03 0.03 0.03 0.03 0.03 0.04 0.04 0.04 0.03 0.03 0.03 0.02 0.02 0.01 0.02 0.05 0.05 0.04 0.04 0.05 0.04
0.00 0.00 0.00 0.00 0.00 0.00 0.00 0.00 0.00 0.00 0.00 0.00 0.01 0.01 0.01 0.02 0.04 0.04 0.05 0.06 0.05 0.04 0.04 0.05 0.04 0.05 0.05 0.05 0.05 0.04 0.04 0.03 0.03 0.05 0.05 0.04 0.04 0.03 0.02 0.01 0.01 0.01 0.02 0.03 0.03 0.03 0.04 0.04 0.03
0.00 0.00 0.00 0.00 0.00 0.00 0.00 0.00 0.00 0.00 0.00 0.00 0.01 0.01 0.02 0.04 0.06 0.07 0.06 0.06 0.08 0.09 0.05 0.05 0.06 0.06 0.07 0.08 0.09 0.08 0.07 0.07 0.06 0.06 0.05 0.04 0.03 0.02 0.01 0.01 0.01 0.01 0.01 0.01 0.02 0.02 0.04 0.04 0.03
0.00 0.00 0.00 0.00 0.00 0.00 0.00 0.00 0.00 0.00 0.00 0.01 0.01 0.01 0.02 0.03 0.04 0.05 0.06 0.07 0.08 0.06 0.06 0.07 0.10 0.11 0.11 0.13 0.15 0.12 0.09 0.06 0.05 0.04 0.04 0.03 0.02 0.01 0.01 0.01 0.01 0.01 0.01 0.03 0.03 0.01 0.03 0.03 0.03
MSLP
1003.75 1004.84 1006.05 1007.22 1008.25 1009.02 1009.51 1009.74 1009.76 1009.67 1009.60 1009.61 1009.74 1009.98 1010.25 1010.48 1010.56 1010.44 1010.08 1009.54 1008.89 1008.24 1007.69 1007.36 1007.29 1007.48 1007.88 1008.42 1009.02 1009.61 1010.13 1010.56 1010.91 1011.20 1011.48 1011.75 1012.05 1012.37 1012.69 1013.02 1013.32 1013.60 1013.85 1014.08 1014.31 1014.54 1014.78 1015.03 1015.27
1004.16 1005.34 1006.59 1007.75 1008.71 1009.37 1009.71 1009.76 1009.61 1009.37 1009.16 1009.08 1009.16 1009.39 1009.69 1009.99 1010.17 1010.16 1009.93 1009.52 1009.00 1008.46 1008.01 1007.74 1007.72 1007.93 1008.33 1008.87 1009.45 1010.03 1010.53 1010.95 1011.29 1011.58 1011.84 1012.10 1012.37 1012.66 1012.96 1013.26 1013.54 1013.81 1014.07 1014.32 1014.56 1014.81 1015.06 1015.32 1015.56
1004.75 1005.97 1007.20 1008.29 1009.13 1009.65 1009.84 1009.73 1009.44 1009.08 1008.79 1008.64 1008.69 1008.92 1009.25 1009.59 1009.84 1009.92 1009.81 1009.52 1009.12 1008.69 1008.35 1008.16 1008.18 1008.42 1008.83 1009.35 1009.92 1010.46 1010.94 1011.35 1011.67 1011.94 1012.18 1012.41 1012.65 1012.91 1013.18 1013.45 1013.72 1013.99 1014.25 1014.52 1014.78 1015.06 1015.33 1015.59 1015.83
1005.45 1006.66 1007.81 1008.79 1009.49 1009.86 1009.91 1009.69 1009.30 1008.89 1008.55 1008.39 1008.43 1008.65 1008.99 1009.36 1009.65 1009.79 1009.76 1009.56 1009.27 1008.95 1008.71 1008.61 1008.68 1008.94 1009.36 1009.86 1010.40 1010.91 1011.36 1011.74 1012.04 1012.29 1012.51 1012.72 1012.93 1013.16 1013.40 1013.65 1013.90 1014.17 1014.44 1014.73 1015.02 1015.31 1015.60 1015.87 1016.11
1006.17 1007.31 1008.35 1009.18 1009.73 1009.97 1009.92 1009.63 1009.23 1008.82 1008.51 1008.37 1008.42 1008.65 1008.98 1009.34 1009.63 1009.79 1009.80 1009.68 1009.47 1009.25 1009.10 1009.07 1009.20 1009.48 1009.89 1010.37 1010.88 1011.35 1011.77 1012.12 1012.41 1012.65 1012.85 1013.05 1013.24 1013.45 1013.66 1013.89 1014.13 1014.40 1014.67 1014.97 1015.28 1015.59 1015.89 1016.16 1016.40
1006.77 1007.80 1008.70 1009.37 1009.79 1009.93 1009.83 1009.55 1009.20 1008.86 1008.63 1008.56 1008.66 1008.90 1009.21 1009.54 1009.80 1009.95 1009.97 1009.88 1009.73 1009.59 1009.51 1009.54 1009.71 1010.01 1010.41 1010.86 1011.33 1011.77 1012.16 1012.49 1012.77 1013.01 1013.22 1013.42 1013.61 1013.80 1014.00 1014.21 1014.44 1014.69 1014.97 1015.27 1015.58 1015.89 1016.19 1016.45 1016.68
1007.16 1008.05 1008.78 1009.31 1009.61 1009.69 1009.60 1009.40 1009.16 1008.97 1008.87 1008.90 1009.06 1009.32 1009.62 1009.90 1010.11 1010.23 1010.24 1010.16 1010.06 1009.97 1009.94 1010.02 1010.21 1010.51 1010.88 1011.30 1011.72 1012.13 1012.49 1012.82 1013.11 1013.37 1013.60 1013.82 1014.02 1014.22 1014.41 1014.60 1014.81 1015.05 1015.31 1015.59 1015.89 1016.19 1016.47 1016.72 1016.93
1007.29 1008.03 1008.60 1008.99 1009.20 1009.27 1009.23 1009.15 1009.07 1009.04 1009.11 1009.27 1009.51 1009.80 1010.09 1010.34 1010.51 1010.58 1010.58 1010.52 1010.44 1010.38 1010.40 1010.50 1010.69 1010.97 1011.31 1011.68 1012.06 1012.43 1012.78 1013.12 1013.43 1013.72 1013.99 1014.24 1014.47 1014.67 1014.85 1015.04 1015.22 1015.43 1015.66 1015.92 1016.20 1016.48 1016.73 1016.95 1017.12
1007.19 1007.77 1008.18 1008.46 1008.61 1008.69 1008.73 1008.78 1008.88 1009.04 1009.28 1009.57 1009.90 1010.23 1010.53 1010.75 1010.89 1010.95 1010.94 1010.89 1010.84 1010.82 1010.87 1010.98 1011.17 1011.41 1011.70 1012.02 1012.35 1012.69 1013.03 1013.37 1013.71 1014.04 1014.36 1014.65 1014.90 1015.12 1015.31 1015.47 1015.63 1015.81 1016.00 1016.23 1016.47 1016.72 1016.94 1017.13 1017.27
1006.93 1007.36 1007.65 1007.83 1007.95 1008.05 1008.17 1008.35 1008.60 1008.93 1009.31 1009.72 1010.13 1010.50 1010.81 1011.04 1011.18 1011.25 1011.26 1011.24 1011.24 1011.26 1011.33 1011.45 1011.62 1011.83 1012.07 1012.34 1012.62 1012.93 1013.25 1013.60 1013.97 1014.34 1014.69 1015.02 1015.31 1015.54 1015.72 1015.87 1016.01 1016.15 1016.31 1016.49 1016.70 1016.91 1017.11 1017.26 1017.37
1006.64 1006.96 1007.15 1007.25 1007.34 1007.46 1007.65 1007.92 1008.28 1008.72 1009.20 1009.69 1010.15 1010.56 1010.89 1011.13 1011.30 1011.40 1011.46 1011.51 1011.56 1011.64 1011.74 1011.88 1012.04 1012.22 1012.42 1012.64 1012.89 1013.16 1013.47 1013.82 1014.20 1014.60 1014.99 1015.35 1015.65 1015.90 1016.08 1016.21 1016.33 1016.44 1016.57 1016.73 1016.90 1017.08 1017.25 1017.37 1017.45
1006.45 1006.69 1006.81 1006.87 1006.93 1007.05 1007.27 1007.58 1008.00 1008.48 1008.99 1009.50 1009.97 1010.39 1010.74 1011.01 1011.22 1011.38 1011.52 1011.64 1011.77 1011.91 1012.06 1012.23 1012.40 1012.57 1012.74 1012.93 1013.15 1013.40 1013.69 1014.04 1014.43 1014.83 1015.24 1015.61 1015.93 1016.17 1016.36 1016.49 1016.59 1016.68 1016.79 1016.93 1017.08 1017.24 1017.38 1017.48 1017.53
1006.48 1006.67 1006.74 1006.77 1006.81 1006.92 1007.12 1007.42 1007.81 1008.27 1008.74 1009.21 1009.65 1010.05 1010.39 1010.69 1010.95 1011.18 1011.39 1011.61 1011.82 1012.03 1012.25 1012.45 1012.64 1012.83 1013.00 1013.19 1013.39 1013.63 1013.92 1014.26 1014.64 1015.03 1015.43 1015.80 1016.12 1016.37 1016.56 1016.69 1016.79 1016.89 1016.99 1017.12 1017.26 1017.41 1017.53 1017.61 1017.64
1006.76 1006.93 1006.98 1006.99 1007.01 1007.09 1007.25 1007.50 1007.81 1008.17 1008.54 1008.92 1009.27 1009.61 1009.93 1010.23 1010.53 1010.81 1011.10 1011.40 1011.69 1011.97 1012.24 1012.50 1012.74 1012.96 1013.17 1013.38 1013.60 1013.85 1014.13 1014.46 1014.82 1015.19 1015.57 1015.92 1016.23 1016.48 1016.67 1016.82 1016.94 1017.05 1017.17 1017.30 1017.44 1017.58 1017.69 1017.76 1017.76
1007.24 1007.41 1007.46 1007.46 1007.47 1007.53 1007.63 1007.79 1007.98 1008.21 1008.44 1008.68 1008.92 1009.18 1009.45 1009.73 1010.04 1010.36 1010.70 1011.05 1011.39 1011.73 1012.06 1012.37 1012.67 1012.95 1013.21 1013.47 1013.74 1014.01 1014.31 1014.62 1014.95 1015.30 1015.64 1015.96 1016.25 1016.50 1016.71 1016.89 1017.04 1017.18 1017.32 1017.47 1017.62 1017.75 1017.86 1017.91 1017.89
1007.82 1007.99 1008.05 1008.07 1008.08 1008.11 1008.16 1008.23 1008.30 1008.37 1008.45 1008.53 1008.65 1008.80 1009.00 1009.26 1009.56 1009.89 1010.25 1010.62 1010.99 1011.36 1011.73 1012.08 1012.43 1012.78 1013.12 1013.46 1013.78 1014.10 1014.42 1014.73 1015.03 1015.33 1015.63 1015.92 1016.19 1016.44 1016.67 1016.88 1017.08 1017.26 1017.43 1017.60 1017.76 1017.89 1017.99 1018.03 1018.01
1008.37 1008.53 1008.61 1008.66 1008.70 1008.73 1008.74 1008.72 1008.67 1008.60 1008.52 1008.46 1008.45 1008.50 1008.63 1008.85 1009.13 1009.45 1009.81 1010.18 1010.55 1010.92 1011.29 1011.68 1012.08 1012.49 1012.91 1013.33 1013.73 1014.10 1014.44 1014.75 1015.03 1015.29 1015.55 1015.80 1016.05 1016.30 1016.56 1016.80 1017.04 1017.27 1017.48 1017.67 1017.84 1017.97 1018.07 1018.10 1018.07
1008.75 1008.90 1009.02 1009.12 1009.20 1009.24 1009.23 1009.15 1009.00 1008.79 1008.57 1008.38 1008.25 1008.22 1008.30 1008.48 1008.75 1009.07 1009.41 1009.76 1010.11 1010.46 1010.82 1011.22 1011.65 1012.12 1012.61 1013.10 1013.58 1014.01 1014.38 1014.69 1014.95 1015.18 1015.39 1015.60 1015.83 1016.09 1016.36 1016.65 1016.93 1017.20 1017.45 1017.66 1017.83 1017.97 1018.05 1018.09 1018.06
1008.90 1009.05 1009.21 1009.37 1009.50 1009.58 1009.56 1009.42 1009.18 1008.85 1008.51 1008.20 1007.98 1007.89 1007.93 1008.10 1008.37 1008.70 1009.04 1009.37 1009.70 1010.02 1010.37 1010.75 1011.20 1011.71 1012.25 1012.81 1013.35 1013.84 1014.24 1014.56 1014.80 1014.99 1015.16 1015.34 1015.55 1015.81 1016.10 1016.42 1016.74 1017.05 1017.32 1017.55 1017.73 1017.86 1017.94 1017.98 1017.98
1008.82 1008.99 1009.20 1009.43 1009.62 1009.73 1009.69 1009.50 1009.15 1008.70 1008.23 1007.81 1007.51 1007.37 1007.41 1007.61 1007.91 1008.27 1008.65 1008.99 1009.32 1009.62 1009.95 1010.32 1010.77 1011.29 1011.88 1012.49 1013.08 1013.60 1014.04 1014.36 1014.59 1014.75 1014.89 1015.04 1015.23 1015.48 1015.78 1016.13 1016.48 1016.81 1017.11 1017.34 1017.52 1017.65 1017.74 1017.79 1017.81
1008.60 1008.81 1009.09 1009.39 1009.64 1009.76 1009.68 1009.39 1008.91 1008.31 1007.68 1007.13 1006.75 1006.58 1006.63 1006.88 1007.26 1007.70 1008.15 1008.55 1008.90 1009.22 1009.54 1009.91 1010.35 1010.88 1011.49 1012.13 1012.75 1013.31 1013.77 1014.10 1014.33 1014.47 1014.58 1014.71 1014.88 1015.13 1015.43 1015.79 1016.16 1016.51 1016.81 1017.05 1017.23 1017.36 1017.45 1017.52 1017.57
1008.39 1008.65 1009.02 1009.39 1009.67 1009.77 1009.61 1009.17 1008.51 1007.70 1006.88 1006.17 1005.68 1005.47 1005.54 1005.85 1006.34 1006.91 1007.47 1007.97 1008.39 1008.76 1009.10 1009.47 1009.91 1010.45 1011.06 1011.72 1012.37 1012.96 1013.44 1013.79 1014.02 1014.16 1014.25 1014.36 1014.52 1014.75 1015.06 1015.42 1015.79 1016.15 1016.45 1016.69 1016.87 1016.99 1017.09 1017.17 1017.27
1008.33 1008.68 1009.13 1009.56 1009.85 1009.87 1009.57 1008.94 1008.03 1006.96 1005.90 1004.99 1004.36 1004.08 1004.15 1004.54 1005.14 1005.85 1006.56 1007.19 1007.73 1008.17 1008.56 1008.95 1009.41 1009.95 1010.57 1011.24 1011.91 1012.53 1013.03 1013.41 1013.65 1013.80 1013.90 1014.00 1014.15 1014.37 1014.66 1015.01 1015.38 1015.73 1016.03 1016.27 1016.44 1016.56 1016.67 1016.77 1016.90
1008.50 1008.96 1009.49 1009.96 1010.22 1010.14 1009.65 1008.77 1007.57 1006.20 1004.85 1003.70 1002.90 1002.52 1002.57 1003.01 1003.72 1004.57 1005.43 1006.21 1006.87 1007.41 1007.86 1008.30 1008.78 1009.33 1009.96 1010.65 1011.34 1011.99 1012.53 1012.95 1013.22 1013.40 1013.51 1013.62 1013.76 1013.97 1014.25 1014.58 1014.94 1015.28 1015.57 1015.80 1015.96 1016.09 1016.20 1016.32 1016.47
1008.93 1009.49 1010.09 1010.57 1010.77 1010.55 1009.85 1008.69 1007.18 1005.50 1003.85 1002.45 1001.45 1000.95 1000.96 1001.41 1002.20 1003.16 1004.15 1005.06 1005.84 1006.48 1007.01 1007.49 1007.99 1008.56 1009.21 1009.92 1010.64 1011.33 1011.92 1012.38 1012.71 1012.93 1013.07 1013.19 1013.33 1013.54 1013.80 1014.12 1014.46 1014.78 1015.06 1015.28 1015.45 1015.58 1015.69 1015.82 1015.99
1009.54 1010.17 1010.80 1011.26 1011.37 1011.00 1010.09 1008.67 1006.88 1004.90 1002.98 1001.34 1000.16 999.53 999.47 999.91 1000.73 1001.76 1002.83 1003.84 1004.70 1005.41 1005.99 1006.52 1007.05 1007.64 1008.31 1009.04 1009.81 1010.54 1011.19 1011.72 1012.11 1012.38 1012.56 1012.71 1012.87 1013.07 1013.32 1013.62 1013.94 1014.26 1014.53 1014.75 1014.92 1015.05 1015.17 1015.31 1015.49
1010.15 1010.81 1011.44 1011.85 1011.86 1011.34 1010.24 1008.62 1006.61 1004.41 1002.29 1000.47 999.14 998.40 998.25 998.65 999.45 1000.49 1001.58 1002.62 1003.52 1004.26 1004.88 1005.43 1005.98 1006.59 1007.28 1008.05 1008.86 1009.65 1010.36 1010.96 1011.42 1011.75 1011.99 1012.17 1012.35 1012.56 1012.81 1013.11 1013.42 1013.73 1014.00 1014.23 1014.40 1014.54 1014.66 1014.80 1014.98
1010.60 1011.22 1011.79 1012.11 1012.01 1011.36 1010.14 1008.39 1006.26 1003.96 1001.74 999.83 998.42 997.60 997.39 997.72 998.46 999.45 1000.51 1001.52 1002.40 1003.13 1003.74 1004.29 1004.85 1005.47 1006.19 1006.99 1007.84 1008.69 1009.47 1010.14 1010.67 1011.07 1011.36 1011.59 1011.80 1012.03 1012.29 1012.59 1012.90 1013.22 1013.51 1013.74 1013.93 1014.08 1014.21 1014.35 1014.52
1010.69 1011.22 1011.67 1011.86 1011.65 1010.91 1009.63 1007.85 1005.72 1003.44 1001.25 999.37 997.96 997.13 996.88 997.14 997.79 998.69 999.65 1000.58 1001.39 1002.07 1002.65 1003.18 1003.74 1004.37 1005.10 1005.93 1006.82 1007.72 1008.56 1009.29 1009.89 1010.35 1010.70 1010.98 1011.23 1011.49 1011.77 1012.09 1012.43 1012.77 1013.08 1013.35 1013.56 1013.73 1013.86 1013.99 1014.14
1010.38 1010.73 1011.01 1011.05 1010.72 1009.92 1008.63 1006.92 1004.89 1002.76 1000.72 998.97 997.66 996.87 996.62 996.82 997.39 998.16 999.00 999.81 1000.52 1001.13 1001.65 1002.16 1002.71 1003.35 1004.10 1004.95 1005.87 1006.81 1007.69 1008.47 1009.12 1009.63 1010.04 1010.37 1010.66 1010.96 1011.29 1011.64 1012.02 1012.40 1012.75 1013.05 1013.30 1013.49 1013.63 1013.76 1013.88
Thickness
5816 5813 5808 5796 5775 5754 5750 5761 5769 5768 5768 5776 5777 5772 5764 5757 5752 5748 5767 5775 5776 5774 5773 5772 5771 5770 5769 5768 5767 5766 5766 5765 5764 5764 5764 5763 5763 5763 5763 5762 5762 5763 5762 5762 5762 5761 5760 5759 5758
5818 5813 5804 5788 5761 5740 5748 5767 5768 5772 5777 5781 5779 5774 5766 5762 5766 5766 5770 5774 5775 5774 5773 5771 5770 5769 5768 5767 5766 5765 5764 5763 5763 5762 5762 5762 5762 5762 5762 5762 5761 5761 5761 5761 5761 5761 5759 5758 5757
5820 5816 5796 5778 5759 5747 5755 5770 5772 5779 5786 5784 5776 5774 5768 5764 5769 5770 5773 5775 5774 5772 5771 5770 5769 5768 5767 5766 5765 5764 5763 5762 5761 5761 5761 5761 5761 5760 5760 5760 5760 5760 5760 5760 5760 5759 5758 5756 5755
5818 5806 5793 5773 5763 5769 5773 5777 5781 5780 5784 5784 5777 5768 5771 5776 5775 5775 5776 5775 5772 5771 5770 5769 5768 5767 5766 5764 5763 5762 5761 5761 5760 5760 5760 5759 5759 5759 5759 5759 5759 5758 5758 5758 5758 5757 5756 5755 5754
5816 5798 5779 5765 5770 5781 5787 5788 5788 5781 5779 5780 5776 5764 5764 5776 5780 5778 5776 5774 5771 5769 5769 5768 5767 5766 5764 5763 5762 5761 5760 5760 5759 5759 5759 5759 5759 5758 5758 5757 5757 5757 5757 5757 5756 5756 5755 5754 5754
5804 5792 5768 5760 5773 5785 5791 5794 5789 5782 5779 5780 5775 5765 5763 5775 5777 5775 5775 5773 5771 5769 5768 5767 5766 5765 5763 5762 5761 5760 5759 5758 5758 5758 5758 5758 5758 5757 5757 5756 5756 5756 5755 5755 5755 5754 5754 5753 5753
5800 5786 5773 5773 5774 5781 5791 5797 5789 5783 5780 5781 5781 5765 5765 5772 5776 5776 5774 5772 5770 5769 5767 5766 5766 5764 5762 5761 5760 5759 5759 5758 5758 5758 5758 5758 5757 5757 5757 5756 5755 5755 5754 5754 5753 5753 5752 5752 5751
5812 5791 5779 5776 5777 5782 5797 5799 5797 5790 5785 5792 5788 5769 5764 5773 5778 5776 5772 5770 5769 5768 5767 5765 5764 5763 5762 5760 5759 5758 5758 5757 5757 5757 5758 5757 5757 5757 5756 5755 5754 5754 5753 5753 5752 5752 5751 5750 5750
5818 5787 5775 5783 5785 5790 5800 5797 5799 5803 5795 5793 5792 5786 5784 5783 5779 5773 5769 5767 5767 5767 5766 5765 5764 5762 5761 5760 5759 5758 5757 5757 5756 5756 5757 5757 5756 5755 5755 5754 5753 5753 5752 5752 5751 5750 5750 5749 5749
5808 5783 5791 5805 5806 5803 5805 5801 5800 5795 5788 5786 5786 5789 5788 5783 5777 5772 5768 5765 5765 5765 5766 5765 5764 5762 5761 5760 5759 5757 5756 5755 5755 5755 5755 5755 5754 5754 5753 5753 5752 5751 5751 5751 5750 5750 5749 5748 5748
5811 5800 5810 5817 5819 5815 5808 5805 5806 5793 5783 5788 5786 5786 5785 5782 5777 5774 5771 5769 5768 5768 5767 5766 5764 5763 5761 5759 5758 5757 5755 5754 5754 5754 5754 5754 5753 5752 5751 5751 5750 5750 5750 5749 5749 5749 5748 5747 5747
5814 5817 5822 5823 5825 5819 5811 5808 5803 5799 5799 5806 5802 5796 5789 5782 5779 5777 5774 5772 5771 5769 5768 5767 5766 5764 5762 5760 5758 5757 5755 5754 5753 5753 5752 5752 5751 5750 5750 5749 5749 5749 5748 5748 5748 5747 5747 5747 5746
5819 5821 5826 5827 5824 5821 5816 5809 5806 5805 5812 5811 5804 5796 5790 5785 5783 5782 5780 5777 5774 5771 5770 5769 5768 5765 5763 5761 5759 5757 5755 5754 5753 5752 5752 5751 5750 5749 5748 5748 5748 5748 5747 5747 5747 5746 5746 5746 5745
5825 5824 5824 5824 5823 5822 5812 5808 5807 5806 5812 5808 5802 5795 5792 5789 5786 5783 5780 5777 5776 5774 5773 5771 5769 5767 5765 5762 5760 5758 5756 5754 5753 5752 5751 5751 5750 5748 5748 5747 5747 5747 5747 5746 5745 5745 5744 5744 5744
5828 5817 5815 5818 5820 5818 5813 5799 5803 5811 5812 5805 5801 5797 5794 5792 5789 5787 5785 5782 5780 5778 5776 5774 5772 5769 5766 5764 5762 5759 5757 5755 5754 5752 5751 5750 5749 5748 5748 5747 5747 5746 5746 5745 5744 5743 5743 5742 5742
5817 5803 5793 5809 5816 5817 5805 5786 5806 5813 5809 5802 5800 5798 5795 5792 5792 5792 5790 5786 5783 5780 5778 5776 5775 5771 5768 5765 5763 5760 5758 5756 5754 5752 5751 5750 5749 5749 5748 5747 5746 5746 5745 5744 5743 5742 5741 5740 5739
5794 5783 5786 5799 5814 5813 5803 5793 5807 5813 5809 5802 5801 5800 5796 5793 5793 5794 5793 5790 5786 5783 5780 5777 5776 5773 5770 5767 5764 5761 5759 5757 5755 5753 5752 5751 5750 5749 5748 5747 5747 5746 5745 5744 5743 5741 5740 5738 5737
5781 5784 5787 5790 5806 5807 5798 5797 5805 5809 5808 5803 5802 5801 5798 5797 5798 5798 5796 5793 5790 5787 5783 5780 5777 5775 5771 5768 5764 5761 5759 5758 5756 5754 5753 5752 5751 5750 5749 5748 5747 5745 5744 5743 5742 5740 5738 5736 5735
5797 5789 5786 5794 5810 5803 5796 5797 5801 5806 5805 5802 5801 5801 5801 5802 5804 5802 5800 5796 5792 5788 5784 5781 5778 5776 5772 5768 5763 5759 5757 5757 5756 5755 5754 5753 5751 5750 5749 5748 5747 5745 5744 5743 5741 5739 5736 5733 5733
5796 5786 5785 5795 5807 5802 5794 5794 5802 5804 5806 5808 5806 5805 5805 5803 5801 5802 5800 5798 5794 5790 5787 5784 5781 5778 5775 5772 5768 5764 5761 5759 5758 5756 5755 5754 5752 5751 5750 5748 5747 5745 5743 5741 5740 5738 5734 5732 5732
5791 5786 5788 5789 5796 5798 5791 5785 5793 5803 5808 5809 5810 5810 5810 5807 5803 5802 5801 5799 5797 5793 5790 5789 5785 5782 5778 5775 5770 5766 5761 5759 5757 5755 5755 5755 5753 5752 5750 5748 5747 5745 5743 5741 5740 5738 5735 5730 5730
5783 5801 5799 5791 5778 5768 5779 5757 5784 5794 5798 5805 5809 5810 5812 5812 5809 5806 5804 5802 5800 5798 5795 5791 5787 5783 5779 5776 5771 5766 5761 5757 5756 5756 5755 5754 5753 5752 5750 5748 5747 5745 5743 5741 5740 5738 5736 5732 5728
5795 5804 5796 5787 5774 5762 5767 5757 5771 5788 5789 5801 5810 5813 5815 5815 5813 5810 5809 5808 5805 5802 5797 5793 5788 5784 5781 5777 5773 5768 5764 5761 5758 5756 5754 5753 5752 5751 5750 5749 5747 5744 5743 5741 5739 5737 5735 5733 5730
5800 5789 5778 5765 5756 5744 5758 5752 5760 5778 5792 5804 5813 5817 5818 5818 5816 5814 5813 5809 5806 5803 5798 5793 5787 5783 5781 5778 5774 5770 5765 5762 5758 5755 5753 5752 5751 5750 5749 5748 5746 5744 5742 5741 5739 5737 5735 5732 5731
5787 5763 5739 5735 5725 5733 5757 5753 5763 5796 5806 5811 5815 5819 5821 5820 5817 5814 5810 5808 5805 5802 5798 5793 5788 5783 5780 5777 5774 5771 5767 5763 5759 5756 5753 5751 5749 5748 5748 5747 5745 5743 5742 5740 5739 5736 5734 5732 5730
5774 5765 5736 5724 5721 5732 5748 5748 5776 5804 5811 5816 5819 5820 5820 5818 5818 5815 5813 5811 5807 5803 5799 5793 5788 5783 5780 5776 5773 5771 5767 5763 5760 5757 5754 5752 5750 5749 5748 5746 5745 5743 5741 5739 5737 5735 5733 5731 5729
5767 5758 5762 5738 5731 5727 5734 5751 5777 5801 5805 5810 5812 5814 5814 5816 5815 5814 5812 5810 5806 5802 5797 5792 5787 5782 5779 5776 5772 5769 5766 5763 5760 5757 5754 5752 5751 5749 5747 5745 5743 5742 5740 5738 5736 5733 5732 5730 5729
5777 5761 5742 5728 5715 5713 5731 5741 5756 5783 5792 5800 5804 5807 5809 5811 5811 5811 5809 5808 5805 5801 5796 5791 5787 5782 5779 5775 5771 5768 5765 5762 5759 5755 5752 5751 5750 5748 5746 5743 5741 5739 5738 5736 5734 5732 5730 5728 5727
5759 5752 5740 5726 5726 5714 5713 5736 5778 5783 5792 5794 5799 5803 5804 5806 5807 5806 5806 5805 5801 5797 5792 5787 5783 5779 5775 5771 5768 5765 5762 5759 5757 5754 5752 5750 5748 5746 5744 5742 5739 5736 5735 5734 5732 5730 5728 5726 5724
5765 5753 5739 5729 5722 5717 5718 5739 5785 5786 5790 5791 5793 5796 5798 5800 5801 5801 5800 5798 5795 5790 5787 5782 5777 5774 5772 5768 5764 5761 5759 5756 5753 5751 5749 5747 5745 5742 5741 5738 5736 5734 5733 5731 5729 5727 5725 5723 5722